Temp
63 63 63 63 63 63 63 63 64 64 64 64 64 64 64 64 64 85 92 88 89 79 78 99 101 103 103 98 102 102 85 80 83 85 86 95 92 98 99 93 96 97 91 90 94
63 63 63 63 63 63 63 63 63 64 64 64 64 64 64 64 88 93 86 79 79 79 95 97 97 100 96 97 99 93 84 85 92 93 91 94 93 94 93 92 92 94 94 96 97
62 63 63 63 63 63 63 63 63 64 64 64 64 64 64 69 89 94 81 81 80 81 97 100 103 101 94 98 97 94 86 92 93 93 96 93 92 95 89 85 90 90 94 97 96
62 63 63 63 63 63 63 63 63 64 64 63 64 64 64 90 79 99 85 82 80 95 99 101 100 95 92 90 96 88 93 93 93 94 94 91 94 88 89 89 96 96 97 98 97
62 62 62 62 62 62 62 62 63 63 63 63 64 64 87 90 93 104 89 91 101 104 99 99 96 96 90 93 93 90 91 93 94 93 94 94 90 88 87 94 97 97 96 96 95
61 62 62 62 62 62 62 61 61 61 62 63 64 63 89 83 106 108 106 106 106 104 102 102 99 100 94 92 90 93 92 92 93 92 92 89 88 89 89 94 93 93 93 94 94
61 61 61 61 62 62 61 61 60 61 63 65 66 87 90 92 107 109 108 105 106 104 99 103 103 97 97 90 96 93 85 89 90 90 88 91 83 83 89 92 90 90 92 92 89
61 61 61 61 62 62 62 61 61 62 65 66 68 89 87 107 109 107 109 105 107 106 104 105 104 98 95 97 91 87 87 79 87 89 89 87 75 84 89 88 87 88 89 88 85
60 60 61 61 61 61 61 60 62 65 66 68 87 92 89 96 100 105 107 101 102 103 103 104 100 94 94 85 81 83 75 78 80 90 88 84 77 83 88 86 84 86 86 85 83
60 60 60 60 61 61 60 60 70 68 84 94 98 89 97 93 100 102 106 103 98 98 95 94 93 87 87 83 70 74 75 80 78 84 84 82 80 82 85 85 83 84 84 82 81
60 59 59 60 60 60 68 90 88 87 92 90 93 92 94 101 103 100 103 100 97 93 83 91 83 79 81 83 83 81 79 77 82 86 81 79 80 81 83 83 83 82 81 81 80
59 59 60 60 60 60 72 88 93 96 85 97 96 96 99 101 91 96 103 91 88 81 88 84 78 84 86 85 81 80 76 76 82 86 81 78 77 83 81 81 82 81 80 80 81
58 58 59 59 59 69 90 95 104 103 85 90 96 95 94 98 91 91 98 93 88 83 83 79 81 86 83 81 77 77 75 75 74 79 82 78 74 78 81 81 81 81 81 81 79
57 58 58 58 72 97 95 102 106 101 75 82 87 93 96 96 86 97 98 92 87 82 83 81 85 81 80 77 77 69 79 77 74 72 65 79 62 75 75 75 77 78 79 80 80
57 57 58 54 85 94 97 105 104 95 59 85 88 102 97 90 90 88 97 92 82 82 81 77 79 78 76 76 78 72 79 75 74 70 69 70 66 72 75 71 74 77 79 79 80
57 57 57 78 87 100 105 103 95 72 60 80 88 85 86 89 88 90 89 93 90 82 83 81 87 82 79 80 81 80 76 76 75 71 59 68 67 67 70 73 77 79 80 80 79
57 57 64 92 92 104 103 93 71 64 84 79 81 85 84 82 83 83 81 79 75 69 71 77 78 82 81 75 81 78 69 57 58 58 57 72 66 69 73 75 75 74 77 78 79
56 54 74 96 102 102 95 80 61 77 80 87 84 85 79 83 81 81 78 75 82 77 72 68 64 76 80 74 69 70 68 58 47 51 58 69 61 62 73 76 77 77 77 78 78
54 88 91 98 100 97 83 67 69 76 84 79 82 77 78 81 80 79 77 76 78 77 67 65 65 77 78 79 75 69 64 71 59 62 57 64 64 70 73 73 75 76 77 76 75
81 89 94 100 99 90 78 65 77 83 84 82 73 79 73 77 75 76 76 78 75 78 79 72 61 76 75 77 77 71 75 60 61 47 47 59 60 60 67 69 72 72 73 75 73
83 84 93 101 96 83 72 77 83 86 84 78 77 75 76 75 76 74 75 75 76 77 78 74 67 67 73 70 69 68 66 66 64 60 49 48 57 70 68 70 70 72 74 72 72
83 78 97 98 79 81 77 81 67 83 85 82 80 78 75 76 72 73 72 71 76 77 70 71 65 60 67 76 76 73 68 67 56 52 59 55 54 74 72 74 73 72 73 73 74
78 84 97 93 72 76 82 81 81 80 80 79 77 78 79 73 67 73 74 74 75 74 67 70 62 54 60 69 71 66 70 69 66 62 53 47 53 76 75 73 73 70 71 72 72
78 76 86 87 85 77 75 76 76 82 80 80 78 78 75 72 76 70 72 73 74 73 65 69 63 59 54 62 68 64 68 70 65 52 55 56 60 67 70 69 70 70 70 71 71
78 77 78 74 78 79 79 77 76 73 80 81 76 76 74 67 71 70 74 71 73 64 69 67 58 63 66 69 70 68 67 68 64 65 56 61 61 66 67 67 68 69 69 69 67
73 72 76 77 78 75 69 74 74 77 78 74 72 76 76 69 71 68 72 72 70 69 68 69 58 63 61 68 68 65 68 68 67 67 65 65 62 70 70 71 68 67 67 64 64
78 79 74 68 75 73 74 76 76 79 80 81 78 75 73 75 79 78 77 75 73 69 67 65 62 59 53 65 65 57 65 67 67 68 64 56 63 68 65 65 65 66 67 63 65
MSLP
1017.16 1017.03 1016.88 1016.74 1016.59 1016.39 1016.19 1015.94 1015.64 1015.38 1015.02 1014.63 1014.30 1014.19 1014.03 1013.68 1013.05 1012.83 1011.06 1010.75 1010.29 1010.24 1010.14 1009.23 1008.11 1007.41 1006.99 1006.27 1005.05 1004.84 1004.24 1002.86 1002.44 1002.00 1002.79 1003.41 1003.38 1003.86 1004.74 1005.16 1005.67 1006.16 1007.72 1009.24 1009.49
1017.15 1017.01 1016.85 1016.71 1016.55 1016.33 1016.10 1015.85 1015.62 1015.28 1014.85 1014.45 1014.17 1014.05 1013.94 1013.65 1012.49 1010.89 1010.20 1010.08 1010.06 1010.13 1009.72 1008.39 1006.98 1006.46 1005.97 1005.17 1004.49 1004.38 1003.75 1002.91 1002.95 1002.52 1002.61 1003.27 1004.00 1004.42 1004.72 1005.10 1005.71 1006.24 1007.32 1008.07 1008.38
1017.12 1016.96 1016.82 1016.66 1016.49 1016.30 1016.06 1015.80 1015.53 1015.17 1014.72 1014.22 1013.92 1013.82 1013.76 1013.46 1011.64 1009.42 1009.79 1009.85 1009.84 1009.92 1009.29 1007.95 1006.39 1005.57 1004.91 1004.29 1003.93 1003.79 1003.34 1003.12 1003.52 1004.03 1003.57 1003.84 1004.51 1005.28 1005.84 1006.28 1006.58 1006.87 1006.94 1007.25 1007.77
1017.09 1016.92 1016.75 1016.60 1016.48 1016.29 1016.04 1015.73 1015.42 1015.10 1014.68 1014.11 1013.61 1013.57 1013.30 1012.53 1010.02 1009.16 1009.45 1009.49 1009.44 1009.22 1008.51 1006.91 1006.01 1005.12 1004.28 1003.91 1003.86 1003.91 1003.69 1004.15 1004.33 1004.83 1004.46 1004.55 1005.11 1006.33 1007.14 1007.16 1007.06 1007.25 1007.56 1007.26 1007.33
1017.03 1016.86 1016.72 1016.55 1016.36 1016.17 1015.97 1015.65 1015.30 1015.00 1014.57 1013.96 1013.27 1013.58 1012.32 1010.79 1008.66 1008.84 1009.06 1008.79 1008.58 1007.89 1007.27 1006.11 1005.28 1004.52 1004.18 1003.81 1004.28 1004.02 1004.23 1004.91 1005.10 1005.26 1005.18 1005.44 1005.78 1006.85 1007.81 1007.85 1007.81 1007.76 1007.87 1007.95 1008.20
1016.97 1016.82 1016.65 1016.44 1016.21 1016.03 1015.85 1015.56 1015.20 1014.83 1014.38 1013.82 1013.29 1013.34 1012.26 1009.75 1007.96 1008.14 1008.20 1007.96 1007.43 1007.02 1006.32 1005.84 1005.15 1004.79 1004.40 1004.34 1004.37 1004.45 1004.72 1004.96 1005.32 1005.49 1005.93 1006.04 1006.61 1007.23 1008.10 1008.22 1008.34 1008.62 1008.80 1009.01 1009.40
1016.92 1016.74 1016.55 1016.33 1016.11 1015.91 1015.70 1015.39 1015.01 1014.59 1014.10 1013.66 1013.56 1012.85 1010.92 1008.54 1007.83 1007.70 1007.58 1007.34 1007.32 1007.07 1006.46 1006.06 1005.93 1005.49 1005.03 1004.84 1005.09 1005.08 1005.26 1005.26 1005.38 1005.71 1006.10 1006.60 1006.90 1007.58 1008.43 1008.48 1008.79 1009.23 1009.53 1010.13 1010.94
1016.85 1016.67 1016.46 1016.21 1015.96 1015.75 1015.49 1015.14 1014.76 1014.29 1013.71 1013.30 1013.53 1012.63 1009.61 1008.03 1007.93 1007.47 1007.08 1007.01 1007.19 1007.06 1006.91 1006.62 1006.39 1006.02 1005.45 1005.17 1005.52 1005.19 1005.03 1004.62 1005.03 1005.72 1006.19 1007.05 1007.05 1008.02 1008.75 1008.90 1009.13 1009.85 1010.28 1011.07 1012.30
1016.84 1016.60 1016.38 1016.16 1015.91 1015.59 1015.25 1014.92 1014.39 1013.87 1013.32 1012.99 1012.69 1011.18 1008.37 1008.62 1008.02 1007.68 1007.46 1007.03 1007.06 1007.08 1006.99 1006.99 1006.65 1005.94 1005.66 1005.77 1005.33 1005.05 1004.72 1004.36 1005.21 1005.66 1005.90 1006.83 1007.21 1008.55 1009.16 1009.60 1009.89 1010.40 1011.13 1011.97 1013.14
1016.86 1016.60 1016.33 1016.08 1015.78 1015.50 1015.18 1014.80 1013.71 1013.72 1012.13 1011.84 1010.89 1010.04 1008.13 1007.71 1007.88 1007.91 1007.63 1007.67 1007.08 1006.97 1006.96 1006.79 1006.31 1005.80 1005.41 1005.35 1005.00 1004.77 1004.89 1004.27 1004.80 1005.41 1006.27 1006.55 1007.10 1008.42 1009.22 1009.67 1010.35 1010.99 1011.84 1012.74 1013.73
1016.81 1016.50 1016.21 1015.95 1015.70 1015.68 1014.88 1013.77 1013.66 1012.50 1011.10 1009.51 1008.40 1008.09 1007.76 1007.91 1008.22 1007.52 1007.61 1007.26 1007.28 1007.09 1006.62 1006.04 1005.99 1005.37 1005.67 1005.82 1005.98 1005.98 1005.72 1005.31 1005.11 1005.63 1006.43 1007.08 1007.35 1007.83 1008.98 1009.96 1010.43 1011.31 1012.30 1013.19 1014.08
1016.73 1016.35 1016.00 1015.73 1015.62 1015.57 1015.43 1012.67 1010.63 1010.19 1009.38 1008.67 1008.27 1007.79 1007.78 1007.76 1007.52 1007.43 1007.38 1007.16 1007.02 1006.80 1006.27 1006.29 1005.90 1006.22 1006.70 1006.77 1006.89 1006.71 1006.47 1006.05 1005.75 1005.68 1006.54 1007.45 1007.60 1007.57 1008.61 1009.81 1010.78 1011.60 1012.56 1013.38 1014.02
1016.61 1016.21 1015.83 1015.48 1015.22 1014.96 1012.92 1011.13 1010.15 1009.69 1009.06 1007.96 1007.90 1007.43 1007.80 1007.86 1007.08 1007.28 1007.30 1007.12 1006.56 1006.41 1006.41 1006.27 1007.09 1007.35 1007.32 1007.25 1007.56 1007.49 1007.35 1006.88 1006.93 1006.92 1006.98 1007.34 1007.30 1007.54 1008.40 1009.87 1011.20 1012.12 1012.95 1013.66 1014.32
1016.42 1016.04 1015.73 1015.41 1014.94 1011.94 1010.79 1010.50 1009.76 1010.07 1009.07 1007.31 1007.48 1006.93 1007.29 1007.39 1007.51 1008.02 1007.87 1007.71 1006.91 1006.77 1007.05 1006.95 1007.70 1007.98 1007.93 1008.05 1008.76 1008.73 1008.75 1008.63 1008.37 1008.32 1007.85 1007.40 1006.91 1006.89 1008.22 1010.01 1011.21 1012.01 1012.71 1013.40 1014.08
1016.27 1015.83 1015.56 1015.64 1013.98 1011.19 1010.70 1010.18 1010.25 1010.31 1008.18 1007.07 1006.77 1006.74 1007.00 1007.25 1007.68 1008.27 1008.47 1007.95 1007.42 1007.46 1008.27 1007.78 1008.04 1008.37 1008.50 1009.02 1009.71 1009.78 1009.70 1009.63 1009.29 1009.00 1008.74 1008.21 1007.77 1007.11 1008.37 1009.69 1010.65 1011.55 1012.35 1013.33 1013.97
1016.21 1015.71 1015.45 1014.25 1013.28 1010.83 1010.40 1010.43 1010.64 1009.98 1007.12 1006.36 1006.48 1006.93 1006.98 1007.21 1007.55 1008.22 1008.43 1008.65 1008.65 1008.50 1008.26 1008.11 1008.70 1009.28 1009.36 1009.83 1009.85 1010.39 1010.07 1009.52 1009.20 1009.06 1008.61 1007.66 1007.69 1007.66 1008.59 1009.41 1010.08 1011.31 1011.98 1012.84 1013.73
1016.14 1015.62 1015.36 1013.31 1011.25 1010.57 1010.62 1010.44 1010.05 1008.43 1006.66 1006.16 1006.36 1006.74 1006.90 1007.06 1007.54 1008.29 1008.38 1008.59 1008.74 1008.76 1008.28 1008.61 1008.70 1009.61 1010.51 1010.18 1009.77 1010.13 1010.41 1010.03 1008.74 1008.89 1008.33 1008.13 1008.50 1008.39 1009.61 1010.71 1011.52 1012.38 1012.79 1013.24 1013.86
1015.92 1015.53 1013.66 1012.61 1011.48 1011.04 1010.91 1010.49 1009.33 1007.26 1006.13 1006.22 1006.45 1006.59 1006.70 1006.79 1007.66 1008.16 1008.82 1008.73 1008.64 1009.45 1009.34 1008.86 1008.97 1009.71 1010.58 1010.96 1011.16 1011.09 1011.42 1011.44 1010.99 1010.25 1009.32 1008.95 1008.76 1010.59 1010.98 1011.88 1012.44 1012.68 1012.92 1013.73 1013.95
1015.45 1014.21 1012.95 1011.74 1011.65 1011.68 1011.14 1009.90 1008.44 1007.51 1006.56 1006.91 1007.12 1006.76 1006.74 1007.17 1008.14 1008.36 1008.84 1008.95 1009.69 1010.71 1010.88 1010.48 1010.28 1011.01 1011.34 1011.53 1011.96 1011.73 1011.78 1012.48 1012.55 1012.24 1011.42 1010.42 1010.96 1011.35 1011.80 1012.04 1012.37 1012.64 1013.16 1013.62 1014.14
1015.30 1012.93 1010.99 1011.19 1011.66 1011.63 1010.89 1009.41 1008.37 1008.22 1008.06 1007.92 1007.39 1007.28 1006.98 1007.19 1008.34 1008.58 1008.75 1009.98 1010.56 1011.56 1011.89 1011.66 1011.53 1010.97 1011.68 1012.09 1012.25 1012.40 1012.57 1012.66 1012.88 1012.92 1012.20 1011.17 1011.11 1011.36 1011.79 1012.30 1012.67 1013.11 1013.40 1013.72 1014.37
1014.97 1012.07 1011.09 1010.80 1011.33 1011.15 1010.01 1008.50 1007.88 1008.44 1008.89 1008.62 1008.17 1007.78 1008.05 1008.13 1008.76 1009.26 1009.55 1010.99 1011.64 1011.86 1012.60 1012.58 1012.65 1012.18 1012.15 1011.59 1011.50 1012.35 1012.35 1012.88 1013.32 1013.74 1013.39 1012.74 1011.61 1011.87 1012.53 1012.76 1012.97 1013.28 1013.61 1014.17 1014.68
1014.59 1011.48 1010.64 1010.80 1010.97 1009.99 1009.14 1008.90 1009.14 1008.87 1009.32 1009.21 1009.42 1009.15 1009.28 1009.48 1009.95 1010.26 1010.53 1011.76 1012.89 1013.05 1013.24 1014.04 1013.81 1012.94 1011.92 1011.67 1012.19 1012.45 1012.62 1012.86 1013.46 1014.12 1013.70 1013.48 1012.87 1012.42 1012.69 1012.79 1012.95 1013.35 1013.89 1014.40 1014.71
1015.24 1011.82 1010.49 1010.72 1010.26 1009.40 1008.65 1009.03 1009.48 1009.34 1009.54 1009.57 1009.80 1010.27 1010.44 1010.77 1011.05 1011.02 1011.54 1013.17 1013.64 1013.95 1014.78 1014.66 1014.46 1013.84 1012.62 1011.91 1012.51 1012.69 1012.63 1012.98 1013.62 1014.29 1014.38 1014.08 1013.13 1012.15 1012.17 1012.49 1013.07 1013.71 1014.28 1014.68 1014.74
1016.08 1012.00 1010.18 1010.33 1010.35 1010.30 1009.65 1009.29 1009.52 1010.11 1010.07 1010.42 1010.45 1011.01 1011.11 1011.23 1011.34 1011.72 1011.97 1013.31 1014.14 1014.94 1015.78 1015.73 1015.23 1014.63 1013.63 1012.05 1012.35 1012.13 1012.19 1012.48 1013.01 1013.55 1013.70 1013.54 1012.79 1012.55 1012.58 1013.01 1013.61 1014.17 1014.72 1014.86 1014.81
1015.92 1012.90 1012.43 1010.76 1010.33 1010.13 1010.15 1009.91 1009.35 1009.75 1010.56 1010.67 1010.73 1010.96 1011.05 1011.30 1011.25 1011.46 1012.01 1013.31 1014.24 1015.59 1015.90 1016.03 1015.50 1014.82 1013.91 1013.05 1012.41 1012.15 1012.04 1012.10 1012.32 1012.71 1012.93 1012.99 1012.80 1012.92 1013.38 1013.94 1014.29 1014.69 1015.02 1015.04 1015.07
1016.47 1015.20 1014.05 1012.42 1011.82 1011.60 1011.08 1010.62 1010.11 1009.61 1009.85 1010.44 1010.92 1010.90 1011.14 1011.53 1011.71 1011.69 1012.12 1012.62 1013.32 1015.19 1015.37 1015.54 1015.62 1015.04 1014.19 1013.44 1012.75 1011.95 1011.74 1011.99 1012.16 1012.44 1012.79 1012.96 1013.06 1013.56 1014.19 1014.50 1014.90 1015.22 1015.35 1015.55 1015.83
1017.53 1016.63 1015.66 1013.71 1012.35 1011.91 1011.08 1010.47 1010.34 1010.16 1010.21 1010.55 1010.83 1011.08 1011.19 1011.67 1011.85 1012.45 1013.09 1013.53 1013.89 1014.19 1014.63 1015.27 1015.45 1015.15 1014.37 1013.63 1012.53 1012.08 1011.94 1011.98 1012.12 1013.01 1013.48 1013.87 1014.26 1014.62 1014.98 1015.34 1015.43 1015.43 1015.45 1015.88 1015.85
Wind_Speed
6 6 6 6 7 8 9 10 11 11 12 13 14 12 11 12 12 6 8 5 5 5 6 12 15 13 14 17 19 13 12 14 16 13 7 6 1 10 5 11 7 7 21 15 11
6 7 7 7 7 8 9 10 11 12 13 14 14 12 10 10 8 16 1 3 5 2 8 13 15 15 13 19 9 10 12 14 3 15 8 10 11 14 10 14 16 16 23 21 13
6 6 7 7 8 8 10 11 11 12 13 15 14 12 10 9 11 7 4 5 6 6 13 19 14 7 17 13 12 12 8 9 9 12 13 13 4 16 17 13 11 9 12 11 11
6 6 7 7 8 8 10 11 12 12 14 15 15 12 10 8 3 8 5 9 9 10 15 18 11 15 15 8 1 15 6 12 12 10 8 4 12 16 9 9 8 14 9 7 6
5 6 7 7 8 9 10 11 12 13 14 15 16 9 10 10 5 8 7 11 11 15 16 17 14 13 10 3 2 13 7 5 4 0 8 8 10 14 8 8 10 7 4 12 16
6 6 7 8 9 10 11 12 12 13 14 15 15 15 8 16 7 2 6 7 13 9 8 13 12 10 12 5 5 10 3 4 3 9 2 4 3 3 6 2 7 5 7 11 12
7 7 8 8 9 10 11 12 12 13 15 15 11 7 12 7 2 4 9 3 4 8 11 6 12 10 9 2 6 5 7 8 6 4 4 7 8 6 1 2 5 6 8 11 17
7 8 8 9 10 11 12 12 13 15 16 14 5 7 8 5 11 7 6 4 3 4 8 8 7 11 13 6 4 12 14 13 14 7 8 2 4 12 2 2 5 6 8 13 17
8 8 9 10 11 12 13 13 17 15 14 12 9 9 5 3 10 2 6 8 2 4 2 6 9 12 6 10 12 10 11 11 11 11 10 8 6 9 2 3 5 4 8 11 13
9 9 9 10 11 12 13 10 11 14 11 11 12 13 6 3 4 4 1 8 7 4 8 10 9 10 12 11 8 12 7 13 12 14 6 8 9 13 6 2 4 6 8 10 11
11 9 10 11 11 10 12 5 7 6 12 12 5 7 4 6 4 6 2 7 5 8 12 10 9 9 11 13 12 12 13 13 12 8 1 8 15 11 12 3 7 5 7 7 8
13 11 10 11 11 8 6 8 6 12 7 12 9 4 2 3 3 2 9 8 4 11 14 6 12 9 9 7 11 13 15 13 12 3 4 7 16 10 12 8 3 2 7 6 8
13 11 11 11 11 5 12 6 8 6 7 10 10 10 8 9 4 6 8 7 10 7 5 9 9 7 6 8 7 12 15 11 13 16 12 10 17 14 15 11 9 4 6 7 5
14 12 10 12 4 12 3 5 5 5 7 14 8 6 5 7 3 4 4 9 4 7 6 5 8 8 7 3 8 10 14 15 13 12 12 16 13 8 19 12 10 9 7 4 4
15 12 10 3 12 9 5 6 10 3 7 14 12 7 9 9 9 5 0 6 8 3 5 6 1 5 9 11 9 12 14 13 13 12 13 15 10 5 17 12 14 12 8 3 1
16 13 11 7 7 6 6 5 5 7 7 9 10 8 10 9 7 5 5 2 5 9 6 6 5 4 7 7 9 9 13 15 14 11 11 17 14 4 6 6 6 10 8 4 0
17 13 6 9 8 9 7 5 6 9 6 9 11 10 13 8 9 6 8 9 7 6 9 6 12 8 4 10 4 5 10 8 4 9 9 7 2 7 12 12 12 10 11 10 9
19 11 10 9 10 8 7 6 8 13 11 6 3 10 11 11 6 7 5 9 9 4 10 11 6 4 7 4 6 10 5 6 8 9 14 18 7 8 15 10 6 6 8 7 12
17 6 8 9 4 4 7 9 11 12 6 2 7 10 10 6 6 6 9 10 7 9 6 9 3 5 3 4 4 11 5 7 5 10 11 11 11 11 7 3 2 7 6 11 13
6 9 9 7 1 5 7 14 13 2 7 4 8 10 11 9 9 9 7 7 4 5 4 6 8 8 9 3 5 5 7 4 5 3 7 10 12 8 5 12 13 13 12 13 13
4 6 6 3 4 6 9 10 5 9 5 3 9 4 7 7 2 6 9 9 2 2 5 9 4 7 0 8 7 6 7 6 1 5 7 9 5 10 7 10 10 11 14 13 13
6 6 8 5 6 8 12 12 2 2 4 5 6 8 8 8 6 8 4 10 5 5 7 7 5 8 13 9 3 7 11 9 3 7 9 9 10 4 3 7 11 12 14 18 18
7 9 6 5 8 9 6 3 0 3 6 1 4 2 5 5 3 6 6 6 5 2 5 6 4 4 8 9 5 5 7 8 7 5 10 10 9 11 16 14 13 14 16 16 16
6 6 7 5 8 9 12 4 7 2 4 2 4 1 5 7 5 6 2 5 6 5 4 4 5 9 8 15 12 7 9 11 10 6 11 14 18 17 16 15 15 15 16 19 18
6 3 5 5 2 6 6 11 8 8 8 7 5 8 7 5 8 8 8 12 8 8 3 3 7 12 14 16 15 14 15 15 14 15 14 14 16 15 15 16 16 16 17 20 18
5 6 9 11 9 8 7 8 13 12 8 7 8 10 5 6 8 9 8 5 5 8 5 7 7 10 13 14 16 19 14 14 16 14 15 15 13 15 16 16 16 17 19 18 18
8 8 6 8 9 8 11 12 12 7 6 6 7 5 7 5 2 5 6 6 7 5 6 6 8 9 12 13 16 8 14 8 6 11 12 11 14 15 15 15 16 17 16 17 18
Wind_Direction
320 323 325 329 332 328 326 325 323 319 316 309 308 309 314 316 294 222 246 353 309 337 327 270 271 246 243 255 265 275 271 280 357 57 71 82 354 83 28 109 60 76 97 140 182
320 324 327 331 333 331 327 324 320 317 314 307 305 309 320 325 272 257 112 312 305 341 259 243 234 220 240 240 244 242 267 292 15 19 72 99 14 33 9 57 47 60 128 145 150
320 322 325 332 334 329 324 319 317 316 311 306 306 312 315 307 277 116 187 237 246 221 256 274 287 250 249 239 229 239 279 41 40 9 1 56 70 43 20 42 38 16 48 123 151
316 319 325 327 327 322 318 314 314 312 307 304 305 318 298 249 340 84 187 216 219 249 263 262 251 248 258 231 4 270 36 3 49 22 331 6 79 72 34 44 26 50 5 21 16
321 319 318 319 317 316 312 310 308 306 304 302 304 341 318 255 80 129 229 245 256 252 244 256 252 261 273 17 310 268 98 328 60 286 3 34 73 95 69 36 30 56 21 17 12
329 320 318 316 313 309 306 304 302 300 298 299 306 316 253 277 108 188 235 235 252 270 298 296 321 355 309 286 270 5 1 197 148 128 253 199 75 57 88 41 84 19 26 27 13
338 329 320 311 305 302 302 298 293 292 293 292 310 308 283 294 343 246 228 305 325 289 288 264 318 298 343 271 298 283 265 216 200 168 219 285 173 176 110 91 64 25 40 41 39
343 330 317 307 303 301 297 293 292 290 288 282 274 280 269 42 329 239 280 170 251 259 278 320 275 285 283 355 271 259 231 233 149 160 135 209 299 100 108 34 76 52 43 56 52
340 326 314 306 302 298 296 295 289 287 270 282 272 215 243 131 235 63 302 322 22 261 329 311 267 258 223 264 246 208 253 230 155 183 151 179 139 111 129 76 57 47 57 59 53
336 321 310 304 299 301 302 276 293 311 243 253 259 276 185 197 82 300 286 273 272 213 236 225 236 234 221 221 267 336 282 271 153 165 168 251 158 145 128 138 112 66 66 60 58
335 321 310 302 299 316 315 218 213 209 237 261 153 265 95 86 203 225 357 274 246 262 271 225 284 281 16 1 349 324 310 317 315 117 129 286 290 146 127 226 145 103 84 89 84
334 321 310 303 307 307 270 257 37 320 257 223 279 302 13 212 210 169 221 242 196 255 230 262 245 46 346 353 330 317 303 293 289 212 162 288 277 239 146 172 92 109 113 78 72
331 321 312 311 309 257 235 349 300 305 268 170 215 218 191 226 237 96 299 306 304 245 259 268 26 2 2 326 349 316 344 305 337 338 317 254 248 256 150 135 128 117 101 119 86
334 322 314 316 287 236 195 289 295 11 270 163 195 225 166 237 162 0 345 304 266 1 346 1 31 334 311 351 26 303 12 336 315 302 287 304 298 279 146 158 162 156 171 103 81
336 324 308 249 315 283 26 322 344 248 275 133 177 104 172 219 104 147 191 276 299 69 277 45 12 334 301 23 6 312 337 302 291 284 287 282 267 257 141 172 179 181 173 167 112
338 330 323 203 231 288 293 347 241 237 258 153 141 204 206 217 165 124 209 267 351 297 256 321 65 300 357 327 274 304 287 293 269 256 261 261 229 102 129 175 99 144 163 142 278
335 323 298 313 310 2 326 249 224 253 102 151 181 194 202 182 155 210 210 212 249 306 273 207 225 121 350 317 354 270 333 315 290 234 237 51 317 313 96 64 48 26 10 14 344
329 318 225 269 304 347 275 231 256 244 226 96 230 181 219 180 198 167 256 260 224 283 298 298 181 146 117 358 336 295 339 292 321 316 328 336 304 79 76 79 65 9 355 311 282
317 223 245 224 312 290 265 228 231 324 26 98 227 259 216 123 252 187 243 258 63 7 333 330 30 110 65 355 345 10 305 31 327 281 272 274 76 95 89 105 256 350 344 316 17
312 275 238 136 89 268 248 261 298 25 340 324 262 224 242 207 174 225 246 46 86 29 0 299 300 302 120 313 189 278 344 272 195 284 300 318 325 64 42 10 349 336 323 313 6
252 255 110 184 190 250 246 247 213 83 327 308 294 313 293 328 343 317 311 114 61 54 320 304 294 283 339 224 263 189 226 215 16 309 294 294 300 72 23 346 332 325 339 352 332
298 265 125 190 240 236 241 343 58 132 195 239 319 334 329 352 331 299 296 56 55 16 293 48 332 289 282 82 29 299 292 327 301 278 290 321 291 82 311 291 352 349 351 343 334
289 302 146 220 249 256 214 217 278 200 257 263 243 348 43 299 301 258 318 88 72 343 16 358 238 292 279 198 144 255 270 237 235 266 263 280 281 298 329 349 354 351 342 334 325
277 284 189 189 265 292 297 250 183 186 315 269 299 63 253 261 234 279 226 125 106 50 42 345 275 268 264 310 321 271 258 243 242 250 264 265 285 302 333 348 348 343 340 328 325
251 305 19 301 28 296 260 297 269 165 214 208 239 242 254 256 263 226 232 133 171 152 201 242 264 271 269 278 289 292 285 280 272 276 281 293 299 320 359 349 337 343 336 323 349
329 349 347 300 296 294 280 266 269 274 177 219 225 278 227 252 270 312 356 316 273 158 206 199 274 282 281 279 272 267 275 288 279 280 280 286 304 357 346 341 335 336 324 355 340
16 327 286 297 279 253 255 247 247 261 292 217 305 236 235 258 341 11 353 324 300 312 239 219 261 288 288 296 297 273 273 330 1 352 340 319 331 333 335 332 326 330 329 343 323